Change the Weather History Date:

Friday, December 7, 2012

  Actual Average Record
Temperature  
Mean Temperature 29 °F 22 °F  
Max Temperature 34 °F 30 °F 56 °F (1939)
Min Temperature 24 °F 15 °F -28 °F (1972)
Degree Days  
Heating Degree Days 36 43  
Month to date heating degree days 198 289  
Since 1 July heating degree days 1652 1961  
Cooling Degree Days 0 0  
Month to date cooling degree days 0 0  
Year to date cooling degree days 888 585  
Moisture  
Dew Point 22 °F    
Average Humidity 71    
Maximum Humidity 81    
Minimum Humidity 61    
Precipitation  
Precipitation T in 0.05 in 0.89 in (1947)
Month to date precipitation 0.31 0.34  
Year to date precipitation 23.37 32.13  
Snow  
Snow 0.10 in 0.50 in 7.70 in (1947)
Month to date snowfall 0.1 2.9  
Since 1 July snowfall 0.2 9.8  
Snow Depth T in    
Sea Level Pressure  
Sea Level Pressure 30.02 in    
Wind  
Wind Speed 9 mph (NNE)    
Max Wind Speed 17 mph    
Max Gust Speed 21 mph    
Visibility 9 miles    
Events Snow    
T = Trace of Precipitation, MM = Missing Value Source: NWS Daily Summary

Daily Weather History Graph

Daily Weather History Graph

Search for Another Location

Airport or City:

Trip Planner

Search our weather history database for the weather conditions in past years. The results will help you decide how hot, cold, wet, or windy it might be!

Date:

Astronomy

Dec. 07, 2012 Rise Set
Actual Time 7:31 AM CST 4:32 PM CST
Civil Twilight 6:58 AM CST 5:04 PM CST
Nautical Twilight 6:22 AM CST 5:41 PM CST
Astronomical Twilight 5:47 AM CST 6:16 PM CST
Moon 12:39 AM CST (12/7) 12:39 PM CST (12/7)
Length of Visible Light 10h 06m
Length of Day
9h 01m
Last Quarter, 38% of the Moon is Illuminated
Dec 7
Last Quarter
Dec 13
New
Dec 19
First Quarter
Dec 28
Full
Jan 4
Last Quarter

Hourly Weather History & Observations

Time (CST) Temp. Windchill Dew Point Humidity Pressure Visibility Wind Dir Wind Speed Gust Speed Precip Events Conditions
12:54 AM 33.1 °F 26.9 °F 25.0 °F 72% 30.00 in 10.0 mi NNW 6.9 mph - N/A   Partly Cloudy
1:54 AM 32.0 °F 23.6 °F 25.0 °F 75% 30.02 in 10.0 mi NW 10.4 mph - N/A   Partly Cloudy
2:54 AM 32.0 °F 23.6 °F 24.1 °F 73% 30.03 in 10.0 mi NNW 10.4 mph - N/A   Clear
3:54 AM 30.0 °F 22.4 °F 23.0 °F 75% 30.04 in 10.0 mi NNW 8.1 mph - N/A   Clear
4:54 AM 28.9 °F 21.1 °F 21.9 °F 75% 30.04 in 10.0 mi NNW 8.1 mph - N/A   Clear
5:54 AM 27.0 °F 20.5 °F 19.9 °F 75% 30.04 in 10.0 mi North 5.8 mph - N/A   Clear
6:54 AM 27.0 °F 20.5 °F 19.9 °F 75% 30.04 in 10.0 mi North 5.8 mph - N/A   Clear
7:54 AM 25.0 °F 19.3 °F 19.0 °F 78% 30.04 in 9.0 mi NNE 4.6 mph - N/A   Clear
8:54 AM 28.9 °F 21.1 °F 19.9 °F 69% 30.04 in 9.0 mi NE 8.1 mph - N/A   Partly Cloudy
9:54 AM 30.9 °F 24.3 °F 21.0 °F 67% 30.04 in 10.0 mi NNE 6.9 mph - N/A   Partly Cloudy
10:54 AM 30.9 °F 23.5 °F 21.0 °F 67% 30.03 in 10.0 mi NE 8.1 mph - N/A   Overcast
11:54 AM 33.1 °F 24.4 °F 21.0 °F 61% 30.02 in 10.0 mi NNE 11.5 mph - N/A   Overcast
12:54 PM 33.1 °F 24.9 °F 21.9 °F 64% 30.01 in 10.0 mi NNE 10.4 mph - N/A   Overcast
1:54 PM 33.1 °F 26.1 °F 21.0 °F 61% 30.01 in 10.0 mi North 8.1 mph - N/A   Overcast
2:54 PM 33.1 °F 23.9 °F 21.0 °F 61% 30.01 in 10.0 mi North 12.7 mph - N/A   Overcast
3:54 PM 32.0 °F 23.6 °F 21.0 °F 64% 30.04 in 10.0 mi North 10.4 mph - N/A   Overcast
4:54 PM 32.0 °F 21.6 °F 21.0 °F 64% 30.02 in 10.0 mi NNE 15.0 mph - N/A   Overcast
5:54 PM 30.9 °F 22.8 °F 21.0 °F 67% 30.02 in 10.0 mi NNE 9.2 mph - N/A   Overcast
6:54 PM 30.2 °F 21.9 °F 21.2 °F 69% 29.97 in 10.0 mi NNE 9.2 mph - N/A   Overcast
7:54 PM 30.0 °F 19.5 °F 23.0 °F 75% 30.03 in 10.0 mi NNE 13.8 mph - N/A   Overcast
8:22 PM 30.2 °F 19.8 °F 24.8 °F 80% 29.98 in 7.0 mi NNE 13.8 mph - 0.00 in   Overcast
8:40 PM 30.2 °F 20.2 °F 24.8 °F 80% 29.98 in 5.0 mi NNE 12.7 mph - 0.00 in Snow Light Snow
8:54 PM 30.0 °F 20.0 °F 24.1 °F 79% 30.03 in 6.0 mi NNE 12.7 mph - 0.00 in Snow Light Snow
9:54 PM 30.0 °F 20.5 °F 25.0 °F 82% 30.04 in 6.0 mi NE 11.5 mph - 0.00 in Snow Light Snow
10:54 PM 28.9 °F 21.1 °F 24.1 °F 82% 30.04 in 8.0 mi NE 8.1 mph - 0.00 in   Overcast
11:54 PM 28.9 °F 21.1 °F 24.1 °F 82% 30.03 in 8.0 mi NE 8.1 mph - N/A   Overcast